| time (UTC) | temp F | wind direction | speed MPH | gust MPH | rain 1hr in | rain 24hr in | rain mn in | humidity % | barometer mb |
| 20260507113133 | 40 | 264 | 0.0 | 0.0 | 0.00 | 0.00 | 0.00 | 95 | 1010.5 |
| 20260507111558 | 39 | 264 | 0.0 | 0.0 | 0.00 | 0.00 | 0.00 | 95 | 1010.2 |
| 20260507110058 | 38 | 264 | 0.0 | 0.0 | 0.00 | 0.00 | 0.00 | 95 | 1010.1 |
| 20260507104606 | 38 | 264 | 0.0 | 0.0 | 0.00 | 0.01 | 0.00 | 95 | 1009.9 |
| 20260507103054 | 38 | 264 | 0.0 | 0.0 | 0.00 | 0.01 | 0.00 | 94 | 1009.9 |
| 20260507101556 | 38 | 264 | 0.0 | 0.0 | 0.00 | 0.01 | 0.00 | 94 | 1009.9 |
| 20260507100046 | 38 | 264 | 0.0 | 0.0 | 0.00 | 0.01 | 0.00 | 94 | 1009.9 |
| 20260507094539 | 38 | 264 | 0.0 | 0.0 | 0.00 | 0.01 | 0.00 | 94 | 1009.8 |
| 20260507093017 | 38 | 264 | 0.0 | 0.0 | 0.00 | 0.01 | 0.00 | 94 | 1009.7 |
| 20260507091517 | 39 | 264 | 0.0 | 0.0 | 0.00 | 0.01 | 0.00 | 94 | 1009.6 |
| 20260507090057 | 39 | 264 | 0.0 | 0.0 | 0.00 | 0.01 | 0.00 | 94 | 1009.6 |
| 20260507084600 | 40 | 264 | 0.0 | 0.0 | 0.00 | 0.01 | 0.00 | 94 | 1009.4 |
| 20260507083043 | 40 | 264 | 0.0 | 0.0 | 0.00 | 0.01 | 0.00 | 94 | 1009.3 |
| 20260507081542 | 40 | 264 | 0.0 | 0.0 | 0.00 | 0.01 | 0.00 | 94 | 1009.4 |
| 20260507080041 | 40 | 264 | 0.0 | 0.0 | 0.00 | 0.01 | 0.00 | 94 | 1009.3 |
| 20260507074542 | 40 | 264 | 0.0 | 0.0 | 0.00 | 0.14 | 0.00 | 93 | 1009.4 |
| 20260507073037 | 40 | 264 | 0.0 | 0.0 | 0.00 | 0.14 | 0.00 | 93 | 1009.3 |
| 20260507071541 | 41 | 264 | 0.0 | 0.0 | 0.00 | 0.14 | 0.00 | 93 | 1009.3 |
| 20260507070037 | 41 | 264 | 0.0 | 0.0 | 0.00 | 0.14 | 0.00 | 93 | 1009.2 |
| 20260507064543 | 41 | 264 | 0.0 | 0.0 | 0.00 | 0.31 | 0.00 | 93 | 1009.4 |
| 20260507063020 | 41 | 264 | 0.0 | 0.0 | 0.00 | 0.31 | 0.00 | 93 | 1009.3 |
| 20260507061521 | 41 | 264 | 0.0 | 0.0 | 0.00 | 0.31 | 0.00 | 93 | 1009.3 |
| 20260507060031 | 41 | 264 | 0.0 | 0.0 | 0.00 | 0.31 | 0.00 | 92 | 1009.4 |
| 20260507054520 | 41 | 264 | 0.0 | 0.0 | 0.00 | 0.43 | 0.00 | 92 | 1009.4 |
| 20260507053016 | 42 | 264 | 0.0 | 0.0 | 0.00 | 0.43 | 0.00 | 92 | 1009.4 |
| 20260507051514 | 42 | 264 | 0.0 | 0.0 | 0.00 | 0.43 | 0.00 | 91 | 1009.3 |
| 20260507050035 | 42 | 264 | 0.0 | 0.0 | 0.00 | 0.43 | 0.00 | 91 | 1009.6 |
| 20260507044519 | 43 | 264 | 0.0 | 0.0 | 0.00 | 0.48 | 0.00 | 91 | 1009.7 |
| 20260507043051 | 43 | 264 | 0.0 | 0.0 | 0.00 | 0.48 | 0.00 | 90 | 1009.8 |
| 20260507041549 | 44 | 264 | 0.0 | 0.0 | 0.00 | 0.48 | 0.00 | 90 | 1009.6 |
| 20260507040035 | 44 | 264 | 0.0 | 0.0 | 0.00 | 0.48 | 0.00 | 89 | 1009.3 |
| 20260507034538 | 45 | 264 | 0.0 | 0.0 | 0.00 | 0.56 | 0.48 | 88 | 1009.4 |
| 20260507033039 | 45 | 264 | 0.0 | 0.0 | 0.00 | 0.56 | 0.48 | 87 | 1009.5 |
| 20260507031532 | 46 | 264 | 0.0 | 0.0 | 0.00 | 0.56 | 0.48 | 85 | 1009.4 |
| 20260507030034 | 47 | 264 | 0.0 | 0.0 | 0.00 | 0.56 | 0.48 | 83 | 1009.4 |
| 20260507024530 | 49 | 264 | 0.0 | 0.0 | 0.00 | 0.57 | 0.48 | 82 | 1009.6 |
| 20260507023024 | 50 | 264 | 0.0 | 0.0 | 0.00 | 0.57 | 0.48 | 80 | 1009.4 |
| 20260507021543 | 50 | 264 | 0.0 | 0.0 | 0.00 | 0.57 | 0.48 | 78 | 1009.3 |
| 20260507020020 | 50 | 264 | 0.0 | 0.0 | 0.00 | 0.57 | 0.48 | 76 | 1009.2 |
| 20260507014512 | 51 | 264 | 0.0 | 0.0 | 0.00 | 0.62 | 0.48 | 73 | 1009.3 |
| 20260507013010 | 52 | 264 | 0.0 | 0.0 | 0.00 | 0.62 | 0.48 | 72 | 1009.0 |
| 20260507011515 | 52 | 264 | 0.0 | 0.0 | 0.00 | 0.62 | 0.48 | 70 | 1008.5 |
| 20260507010008 | 53 | 264 | 0.0 | 0.0 | 0.00 | 0.62 | 0.48 | 69 | 1008.6 |
| 20260507004505 | 54 | 264 | 0.0 | 0.0 | 0.00 | 0.67 | 0.48 | 69 | 1008.7 |
| 20260507003004 | 55 | 257 | 0.0 | 0.0 | 0.00 | 0.67 | 0.48 | 67 | 1008.5 |
| 20260507001502 | 56 | 299 | 0.0 | 0.0 | 0.00 | 0.67 | 0.48 | 70 | 1008.4 |
| 20260507000046 | 56 | 49 | 0.0 | 0.0 | 0.00 | 0.67 | 0.48 | 69 | 1008.1 |
| 20260506234557 | 56 | 90 | 0.0 | 0.0 | 0.00 | 0.71 | 0.48 | 70 | 1007.8 |
| 20260506233044 | 57 | 357 | 0.0 | 0.0 | 0.00 | 0.71 | 0.48 | 68 | 1007.5 |
| 20260506231544 | 57 | 311 | 0.0 | 1.0 | 0.00 | 0.71 | 0.48 | 66 | 1007.2 |
| 20260506230041 | 57 | 30 | 0.0 | 3.0 | 0.00 | 0.71 | 0.48 | 66 | 1007.5 |
| 20260506224545 | 58 | 349 | 0.0 | 3.0 | 0.00 | 0.73 | 0.48 | 66 | 1007.4 |
| 20260506223047 | 59 | 342 | 0.0 | 3.0 | 0.00 | 0.73 | 0.48 | 64 | 1007.6 |
| 20260506221540 | 60 | 271 | 0.0 | 2.0 | 0.00 | 0.73 | 0.48 | 62 | 1007.8 |
| 20260506220039 | 61 | 33 | 0.0 | 1.0 | 0.00 | 0.73 | 0.48 | 63 | 1007.9 |
| 20260506214541 | 61 | 76 | 0.0 | 1.0 | 0.00 | 0.79 | 0.48 | 61 | 1007.4 |
| 20260506213030 | 62 | 63 | 0.0 | 1.0 | 0.00 | 0.79 | 0.48 | 60 | 1007.3 |
| 20260506211528 | 63 | 59 | 0.0 | 1.0 | 0.00 | 0.79 | 0.48 | 58 | 1007.1 |
| 20260506210033 | 63 | 77 | 0.0 | 1.0 | 0.00 | 0.79 | 0.48 | 60 | 1007.2 |
| 20260506204536 | 63 | 15 | 0.0 | 6.0 | 0.00 | 0.79 | 0.48 | 55 | 1007.0 |
| 20260506203028 | 64 | 274 | 0.0 | 2.0 | 0.00 | 0.79 | 0.48 | 50 | 1007.1 |
| 20260506201526 | 64 | 300 | 0.0 | 1.0 | 0.00 | 0.79 | 0.48 | 55 | 1006.9 |
| 20260506200023 | 63 | 76 | 0.0 | 7.0 | 0.00 | 0.79 | 0.48 | 53 | 1007.2 |
| 20260506194522 | 64 | 70 | 0.0 | 3.0 | 0.00 | 0.79 | 0.48 | 53 | 1007.3 |
| 20260506193014 | 65 | 24 | 0.0 | 2.0 | 0.00 | 0.79 | 0.48 | 55 | 1007.0 |
| 20260506191511 | 62 | 225 | 0.0 | 6.0 | 0.00 | 0.79 | 0.48 | 58 | 1007.1 |
| 20260506190009 | 63 | 143 | 2.0 | 6.0 | 0.00 | 0.79 | 0.48 | 50 | 1006.8 |
| 20260506184507 | 66 | 188 | 1.0 | 4.0 | 0.00 | 0.79 | 0.48 | 50 | 1006.9 |
| 20260506183006 | 64 | 26 | 0.0 | 4.0 | 0.00 | 0.79 | 0.48 | 51 | 1006.8 |
| 20260506181503 | 64 | 12 | 1.0 | 5.0 | 0.00 | 0.79 | 0.48 | 58 | 1007.0 |
| 20260506180007 | 63 | 111 | 0.0 | 4.0 | 0.00 | 0.79 | 0.48 | 57 | 1007.2 |
| 20260506174604 | 62 | 76 | 0.0 | 4.0 | 0.00 | 0.79 | 0.48 | 58 | 1007.2 |
| 20260506173055 | 61 | 6 | 0.0 | 6.0 | 0.00 | 0.79 | 0.48 | 59 | 1007.5 |
| 20260506171550 | 62 | 147 | 0.0 | 6.0 | 0.00 | 0.79 | 0.48 | 58 | 1007.5 |
| 20260506170048 | 63 | 95 | 0.0 | 3.0 | 0.00 | 0.79 | 0.48 | 62 | 1007.6 |
| 20260506164550 | 62 | 117 | 1.0 | 6.0 | 0.00 | 0.79 | 0.48 | 70 | 1007.6 |
| 20260506163042 | 61 | 77 | 0.0 | 3.0 | 0.00 | 0.79 | 0.48 | 66 | 1007.3 |
| 20260506161546 | 61 | 307 | 0.0 | 4.0 | 0.00 | 0.79 | 0.48 | 71 | 1007.1 |
| 20260506160045 | 61 | 281 | 0.0 | 2.0 | 0.00 | 0.79 | 0.48 | 69 | 1007.5 |
| 20260506154536 | 59 | 269 | 0.0 | 4.0 | 0.00 | 0.79 | 0.48 | 76 | 1007.2 |
| 20260506153017 | 60 | 325 | 0.0 | 2.0 | 0.00 | 0.79 | 0.48 | 72 | 1006.8 |
| 20260506151520 | 58 | 12 | 0.0 | 4.0 | 0.00 | 0.79 | 0.48 | 72 | 1006.9 |
| 20260506150107 | 58 | 302 | 0.0 | 2.0 | 0.00 | 0.79 | 0.48 | 75 | 1006.5 |
| 20260506144608 | 58 | 302 | 0.0 | 2.0 | 0.00 | 0.79 | 0.48 | 77 | 1006.6 |
| 20260506143058 | 57 | 46 | 0.0 | 3.0 | 0.00 | 0.79 | 0.48 | 79 | 1006.2 |
| 20260506141553 | 56 | 276 | 0.0 | 1.0 | 0.00 | 0.79 | 0.48 | 85 | 1006.2 |
| 20260506140105 | 55 | 18 | 0.0 | 3.0 | 0.00 | 0.79 | 0.48 | 84 | 1005.8 |
| 20260506134551 | 53 | 300 | 0.0 | 2.0 | 0.00 | 0.79 | 0.48 | 90 | 1005.9 |
| 20260506133050 | 51 | 250 | 0.0 | 1.0 | 0.00 | 0.79 | 0.48 | 91 | 1005.8 |
| 20260506131547 | 49 | 300 | 0.0 | 4.0 | 0.00 | 0.79 | 0.48 | 92 | 1005.6 |
| 20260506130057 | 48 | 293 | 0.0 | 4.0 | 0.00 | 0.79 | 0.48 | 93 | 1005.3 |
| 20260506124533 | 48 | 266 | 0.0 | 3.0 | 0.00 | 0.79 | 0.48 | 93 | 1005.3 |
| 20260506123033 | 47 | 359 | 0.0 | 1.0 | 0.00 | 0.79 | 0.48 | 94 | 1005.2 |
| 20260506121530 | 47 | 318 | 0.0 | 1.0 | 0.00 | 0.79 | 0.48 | 94 | 1005.0 |
| 20260506120031 | 47 | 354 | 0.0 | 3.0 | 0.00 | 0.79 | 0.48 | 94 | 1004.6 |
| 20260506114537 | 47 | 245 | 0.0 | 1.0 | 0.00 | 0.79 | 0.48 | 94 | 1004.2 |